Accueil
METAR-TAF:

METAR-TAF

Aéroports :

Tooele, Utah, États-Unis

latitude: 40-36-45N, longitude: 112-21-03W, altitude: 1317 m

Observation

Le bulletin a été fait il y a 14 minutes, à 13:15 UTC
Vent 9 kt de sud/sud-ouest
Température 19°C
Humidité 28%
Pression 1019 hPa
Visibilité: 16.1 km
Ciel clair

METAR: KTVY 131315Z AUTO 20009KT 10SM CLR 19/00 A3009 RMK AO2

Heure: 07:29 (13:29 UTC)


TAF: absent

Observations et prévisions météorologiques de plus de 4000 aéroports (messages METAR et TAF).

Les stations disponibles sont représentées par des disques jaunes et rouges sur la carte.

Passer la souris dessus pour voir le nom de la station.

Cliquer dessus pour voir les observations et prévisions météorologiques.

Pour changer de carte: cliquez sur les boutons verts avec une croix noire pour zoomer, sur le bouton vert avec un tiret pour effectuer un zoom arrière, ou sur les flèches vertes pour les cartes adjacentes.


METAR-TAF: